Regional Weather Roundup
Issued by NWS

Home | Current Version | Previous Version | Graphics & Text | Print | Product List | Glossary On
Versions: 1 2 3 4 5 6 7 8 9 10 11 12 13 14 15 16 17 18 19 20 21 22 23 24 25 26 27 28 29 30 31 32 33 34 35 36 37 38 39 40 41 42 43 44 45 46 47 48 49 50
000
ASUS45 KPSR 050210
RWRAZ

ARIZONA REGIONAL HOURLY WEATHER ROUNDUP
NATIONAL WEATHER SERVICE PHOENIX AZ
700 PM MST WED MAR 04 2015

NOTE: FAIR INDICATES FEW OR NO CLOUDS BELOW 12,000 FEET WITH NO
SIGNIFICANT WEATHER AND/OR OBSTRUCTIONS TO VISIBILITY.

AZZ001>003-036-050300-
NORTHWEST ARIZONA

CITY           SKY/WX    TMP DP  RH WIND       PRES   REMARKS
BULLHEAD CITY  CLEAR     63  21  20 N15G25    30.14R
KINGMAN        CLEAR     45  25  45 NE9       30.16R
$$

AZZ004>008-015-016-018-050300-
NORTH CENTRAL ARIZONA

CITY           SKY/WX    TMP DP  RH WIND       PRES   REMARKS
GRAND CANYON   CLEAR     24  18  77 CALM      30.19R
PRESCOTT       CLEAR     47  20  34 NW5       30.13R
FLAGSTAFF      NOT AVBL
PAYSON         CLEAR     43  21  42 N7        30.15R
PAGE           CLEAR     43  16  33 SE3       30.18R
$$

AZZ009>014-017-050300-
NORTHEAST ARIZONA

CITY           SKY/WX    TMP DP  RH WIND       PRES   REMARKS
WINSLOW        CLEAR     40  19  43 NW7       30.17R
SAINT JOHNS    CLEAR     39  18  42 NW8       30.12R WCI  33
WINDOW ROCK    CLEAR     33  14  45 N7        30.14R WCI  27
SHOW LOW       CLEAR     32  19  59 N7        30.16R WCI  26
$$

AZZ023-050300-
GREATER PHOENIX AREA

CITY           SKY/WX    TMP DP  RH WIND       PRES   REMARKS
PHOENIX        CLEAR     66  34  30 W10       30.04R
BUCKEYE        CLEAR     59  36  41 W8        30.07R
GLENDALE       CLEAR     64  34  32 S6        30.06R
LUKE AFB       CLEAR     64  39  40 SW6       30.04R
DEER VALLEY    CLEAR     63  31  30 W7        30.04R
SCOTTSDALE     CLEAR     64  33  31 W3        30.06R
MESA-FALCON    CLEAR     61  30  31 W9        30.04R
MESA-GATEWAY   CLEAR     63  34  34 W8        30.06R
CHANDLER       CLEAR     64  32  29 W9        30.05R
$$

AZZ027-028-050300-
SOUTHWEST MARICOPA COUNTY AND PINAL COUNTY

CITY           SKY/WX    TMP DP  RH WIND       PRES   REMARKS
CASA GRANDE    CLEAR     61  34  36 W8        30.07R
GILA BEND      CLEAR     62  34  35 W5        30.07R
$$

AZZ503-504-507>509-050300-
SOUTHEAST ARIZONA

CITY           SKY/WX    TMP DP  RH WIND       PRES   REMARKS
TUCSON         CLEAR     58  31  35 NW9       30.09R
DAVIS-MONTHAN  CLEAR     56  32  40 NW9       30.07R
RYAN FIELD       N/A     57  34  41 NW5       30.10R
NOGALES        CLEAR     52  29  41 NW8       30.08R
SIERRA VISTA   PTCLDY    46  30  53 NW9       30.09R
DOUGLAS        MOCLDY    48  37  65 SE7       30.08R
SAFFORD        CLEAR     56  27  32 W13       30.02R
$$

AZZ020-021-025-026-031-050300-
SOUTHWEST ARIZONA

CITY           SKY/WX    TMP DP  RH WIND       PRES   REMARKS
YUMA           CLEAR     64  27  24 N6        30.09R
$$

CAZ031-033-041-043-047-048-061-050300-
SOUTHERN CALIFORNIA

CITY           SKY/WX    TMP DP  RH WIND       PRES   REMARKS
DOWNTOWN L.A.  CLEAR     64  41  42 W5        30.09R
L.A. AIRPORT   PTCLDY    61  46  57 W13       30.10R
SAN DIEGO      PTCLDY    63  50  62 NW7       30.11R
BURBANK        CLEAR     63  31  30 S6        30.09R
ONTARIO        PTCLDY    67  29  24 SW6       30.08R
RIVERSIDE      PTCLDY    67   9  10 N6        30.08R
PALM SPRINGS   CLEAR     69  14  12 N3        30.11R
EL CENTRO NAS  PTCLDY    67  25  20 CALM      30.09R
IMPERIAL       CLEAR     65  30  27 CALM      30.08R
BLYTHE         CLEAR     63  29  27 N6        30.09R
$$

NVZ020-UTZ003-050300-
SOUTHERN NEVADA-UTAH

CITY           SKY/WX    TMP DP  RH WIND       PRES   REMARKS
LAS VEGAS      CLEAR     57  17  21 E6        30.16R
SALT LAKE CITY CLEAR     36  19  50 CALM      30.28R
$$

NMZ009-TXZ055-050300-
NEW MEXICO-WEST TEXAS

CITY           SKY/WX    TMP DP  RH WIND       PRES   REMARKS
ALBUQUERQUE    PTCLDY    44  14  29 N16       30.06R
EL PASO        MOCLDY    55  31  39 N7        30.02R
$$


........................KEY........................
SKY/WX - SKY CONDITION/WEATHER
TMP    - TEMPERATURE IN FAHRENHEIT
DP     - DEW POINT IN FAHRENHEIT
RH     - RELATIVE HUMIDITY IN PERCENT
WIND   - DIRECTION AND SPEED IN MILES PER HOUR (MPH)
VRB    - VARIABLE WIND DIRECTION
PRES   - MEAN SEA LEVEL PRESSURE IN INCHES OF MERCURY
         F - FALLING PRESSURE   R - RISING PRESSURE
         S - STEADY PRESSURE
VSB    - VISIBILITY IN MILES
HX     - HEAT INDEX IN FAHRENHEIT
WCI    - WIND CHILL INDEX IN FAHRENHEIT
TC     - TEMPERATURE IN CELSIUS WHICH IS ALSO KNOWN AS
         TEMPERATURE IN CENTIGRADE
AFB    - AIR FORCE BASE
         LUKE AFB IS LUKE AIR FORCE BASE
         DAVIS-MONTHAN IS DAVIS-MONTHAN AIR FORCE BASE
NAS    - NAVAL AIR STATION
         EL CENTRO NAS IS EL CENTRO NAVAL AIR STATION
N/A    - NOT AVAILABLE



USA.gov is the U.S. government's official web portal to all federal, state and local government web resources and services.